Location: ??? ???
(33.4974°N, 35.4618°E)
Time: 18:32:23
(UTC+00:00)

SL-16 R/B - Pass Details

Date: 29 October 2020
Orbit: 842 x 846 km, 71.0° (Epoch: 01 December)

Event Time Altitude Azimuth Distance (km) Brightness Sun altitude
Rises 16:54:23 0° 183° (S) 3,382 5.4 -26.7°
Reaches altitude 10° 16:56:54 10° 177° (S) 2,451 4.6 -27.2°
Enters shadow 16:57:34 13° 175° (S) 2,216 4.3 -27.4°
